User: anonymous   Login
Location: Unspecified
(0.0000°N, 0.0000°E)
Time: 09:46:14
(UTC+00:00)
Language:

Explorer 11/Cluster Stage 4 - Orbit

View from above orbital plane
View from above orbital plane
View from above satellite
View from above satellite

Ground track
Ground track

The orbit data is extracted from the following two-line orbital elements,

1 00107U 61013A   15209.15056329  .00001515  00000-0  18815-3 0  9995
2 00107 028.7885 180.3438 0554182 334.6718 112.6994 14.07056896713753
Epoch (UTC): 28 July 2015 03:36:48
Eccentricity: 0.0554182
inclination: 28.7885°
perigee height: 468 km
apogee height: 1271 km
right ascension of ascending node: 180.3438°
argument of perigee: 334.6718°
revolutions per day: 14.07056896
mean anomaly at epoch: 112.6994°
orbit number at epoch: 71375

The dashed part of the orbit path shows where the satellite is in the earth's shadow,  

DLR